Location: Peterborough
(44.3091°N, 78.3197°W)
Time: 00:40:10
(UTC-04:00)

S-56A Canister/Altair - Pass Details

Date: 23 March 2023
Orbit: 639 x 2492 km, 38.9° (Epoch: 02 June)

Event Time Altitude Azimuth Distance (km) Brightness Sun altitude
Rises 20:54:56 0° 237° (WSW) 5,155 12.3 -15.9°
Reaches altitude 10° 20:58:02 10° 234° (SW) 4,373 11.8 -16.4°
Maximum altitude 21:10:21 60° 159° (SSE) 2,633 9.9 -18.5°
Enters shadow 21:21:08 22° 90° (E) 4,242 10.7 -20.2°
